Location: La Fremière
(47.3405°N, 1.7594°W)
Time: 00:14:18
(UTC+00:00)

Daily predictions for brighter satellites

Satellite Brightness Start Highest point End
(mag) Time Altitude Azimuth Time Altitude Azimuth Time Altitude Azimuth
CZ-4C R/B 4.4 03:48:39 22° NNE 03:48:44 22° NNE 03:54:17 10° ENE
Cosmos 2360 Rocket 4.0 03:56:59 26° NE 03:56:59 26° NE 03:59:22 10° NNE
Cosmos 2219 Rocket 3.6 03:56:12 33° ESE 03:56:12 33° ESE 04:01:07 10° NE
BREEZE-M R/B 4.5 04:05:49 73° SE 04:05:49 73° SE 04:10:39 10° ESE
CZ-3 R/B 4.4 04:01:01 27° SW 04:09:27 34° S 04:18:25 10° SE
COSMOS 2455 4.4 04:13:19 26° SSE 04:13:19 26° SSE 04:15:44 10° SSE
ATLAS 3B R/B 3.1 04:11:24 59° NNE 04:11:24 59° NNE 04:17:27 10° NE
ARIANE 5 R/B 4.3 04:08:43 10° NE 04:13:15 29° E 04:17:47 10° SSE
Cosmos 2322 Rocket 3.9 04:18:34 25° NNE 04:18:34 25° NNE 04:20:49 10° NNE
COSMO-SKYMED 1 4.2 04:26:32 10° SE 04:30:19 30° ENE 04:30:47 30° NE
COSMOS 2428 4.0 04:36:11 10° S 04:41:25 40° ESE 04:46:42 10° NE
CENTAUR R/B 4.1 04:37:54 26° NNW 04:41:44 39° NNE 04:49:58 10° E
Cosmos 2333 Rocket 2.6 04:43:17 53° N 04:43:17 53° N 04:47:43 10° NNE
SL-16 R/B 4.0 04:45:47 19° N 04:45:47 19° N 04:47:39 10° NNE
Cosmos 2278 Rocket 3.3 04:52:35 22° N 04:55:39 40° NE 05:00:56 10° ESE
Nadezhda 4 Rocket 3.8 04:54:40 44° NNW 04:56:46 78° W 05:02:55 10° S
Cosmos 1092 Rocket 4.4 04:51:00 10° N 04:57:09 60° ENE 05:03:20 10° SSE
CZ-2D R/B 4.2 04:59:07 10° NNE 05:02:56 49° E 05:06:44 10° S
Cosmos 2237 Rocket 4.5 04:59:56 10° SSE 05:04:23 24° ESE 05:08:51 10° NE
USA 267 3.9 04:59:38 10° E 05:05:49 46° NNE 05:08:17 33° NNW
IRS-P3 4.3 05:00:51 10° NNE 05:06:12 72° ESE 05:11:30 10° S
BREEZE-M DEB (TANK) 3.9 05:09:46 36° SW 05:10:35 38° SSW 05:21:29 10° SE
Cosmos 2333 4.3 05:12:00 54° NW 05:12:00 54° NW 05:17:35 10° NNE
Cosmos 2322 3.6 05:08:51 13° SSW 05:14:02 86° ESE 05:19:45 10° NNE
Cosmos 1110 Rocket 4.2 05:12:13 28° NNW 05:15:04 69° ENE 05:20:21 10° SSE
Lacrosse 5 rocket 1.5 05:15:29 66° S 05:15:57 74° SE 05:20:18 10° NE
Cosmos 1428 Rocket 4.3 05:10:36 10° N 05:16:49 83° W 05:22:56 10° S
SKYMED 2 3.5 05:13:54 10° SSE 05:18:14 89° ENE 05:19:24 49° NNW
Meteor 2-3 Rocket 3.6 05:14:12 10° S 05:19:47 89° WNW 05:25:24 10° N
Cosmos 2221 2.9 05:17:58 21° N 05:20:41 61° ENE 05:24:53 10° SSE
Meteor 2-17 Rocket 4.3 05:15:57 10° N 05:22:04 87° W 05:28:07 10° S
BREEZE M DEB (TANK) 4.1 05:21:11 40° WNW 05:23:53 85° SSW 05:48:03 10° ESE
USA 229 DEB 3.4 05:20:10 26° SW 05:23:57 81° NW 05:30:50 10° NE
USA 229 3.4 05:20:09 25° SW 05:24:01 82° NW 05:30:53 10° NE
H-2A R/B 1.8 05:20:34 10° N 05:25:28 70° WNW 05:30:25 10° SSW
Cosmos 494 Rocket 3.8 05:23:26 10° SSW 05:28:31 76° WNW 05:33:41 10° NNE
Helios 1A 4.4 05:26:04 10° S 05:27:57 24° SSW 05:27:57 24° SSW
NOSS 3-1 (C) 4.3 05:30:50 27° NNW 05:31:19 27° NNW 05:36:45 10° NNE
JB-3 4.3 05:28:22 10° SSE 05:32:25 86° E 05:34:39 26° N
NOSS 3-1 (A) 3.7 05:33:21 36° NW 05:34:07 37° NNW 05:40:00 10° NNE
Cosmos 1464 Rocket 4.3 05:32:27 30° WSW 05:34:37 39° WNW 05:40:27 10° N
Cosmos 1627 Rocket 4.4 05:28:22 10° NNW 05:34:47 78° W 05:41:07 10° S
ERS-1 4.3 05:30:09 10° N 05:35:04 64° WNW 05:39:57 10° SSW
SL-08 R/B 3.1 05:31:24 10° S 05:36:05 79° WSW 05:39:21 20° NNW
Cosmos 1933 3.5 05:38:07 48° WSW 05:38:07 48° WSW 05:41:33 10° S
Cosmos 2360 Rocket 3.2 05:38:47 26° NW 05:38:47 26° NW 05:42:59 10° N
CZ-4C R/B 3.7 05:33:46 17° NNW 05:38:55 46° NE 05:46:50 10° ESE
Cosmos 2219 Rocket 2.5 05:38:00 34° W 05:39:52 45° NW 05:45:20 10° NNE
Cosmos 1953 Rocket 3.7 05:35:29 10° S 05:39:55 77° E 05:44:26 10° NNE
CZ-3B R/B 3.8 05:40:21 28° NW 05:43:29 76° NNE 06:02:56 10° ESE
Cosmos 1862 3.1 05:40:28 10° S 05:44:18 87° W 05:48:12 10° N
BlueWalker 3 4.1 05:45:56 14° SSW 05:45:56 14° SSW 05:47:08 10° SSW
USA 281 3.1 05:39:10 10° NNE 05:45:42 71° WNW 05:52:12 10° SW
ATLAS CENTAUR R/B 3.5 05:49:08 10° N 05:49:08 10° N 05:49:15 10° N
Cosmos 1943 Rocket 3.0 05:42:35 11° NNW 05:47:46 48° ENE 05:53:05 10° SE
Cosmos 468 4.4 05:42:41 10° SSW 05:47:54 84° WNW 05:53:09 10° NNE
Cosmos 1452 Rocket 3.6 05:47:48 25° NW 05:50:42 55° WSW 05:55:48 10° S
ARIANE 5 R/B 2.9 05:47:32 10° N 05:52:26 42° WNW 05:57:20 10° SW
PSLV R/B 3.5 05:50:33 10° NNE 05:54:53 87° E 05:59:10 10° SSW
Cosmos 2151 3.0 05:53:16 10° S 05:57:26 79° E 06:01:41 10° NNE
Cosmos 2322 Rocket 3.7 06:00:23 17° NW 06:00:23 17° NW 06:03:51 10° N
Geosat 3.9 05:55:26 10° NNE 06:00:27 72° WNW 06:05:27 10° SW
Cosmos 1515 3.6 05:59:27 25° NNW 06:01:18 52° W 06:04:49 10° S
ATLAS 3B R/B 3.8 05:58:40 22° WNW 06:01:52 30° NNW 06:08:28 10° NE
Cosmos 1782 4.3 06:06:17 18° WSW 06:06:17 18° WSW 06:07:58 10° SW
COSMO-SKYMED 1 3.4 06:02:39 10° SSW 06:06:28 30° W 06:07:59 24° WNW
Cosmos 1437 Rocket 2.5 06:06:26 10° SSW 06:10:07 83° W 06:13:50 10° N
NOAA 12 4.1 06:05:35 10° N 06:10:48 60° WNW 06:15:58 10° SSW
Meteor 2-6 Rocket 4.2 06:07:01 10° NNW 06:12:49 79° W 06:18:25 10° S
SKYMED 3 4.4 06:09:01 10° S 06:13:05 59° WSW 06:17:11 10° NNW
USA 215 3.6 06:06:48 10° NE 06:13:19 70° SE 06:19:49 10° SW
Helios 1B rocket 2.3 06:10:37 10° NNE 06:14:37 90° W 06:18:36 10° SSW
FengYun 1-2 T 4.4 06:09:51 10° N 06:15:16 51° WNW 06:20:37 10° SW
Cosmos 2369 Rocket 4.0 06:11:36 10° N 06:16:16 25° NE 06:20:55 10° E
Cosmos 1048 Rocket 4.4 06:12:33 10° SW 06:17:20 38° WNW 06:22:07 10° N
Cosmos 1378 2.8 06:14:06 10° NNW 06:17:34 72° W 06:21:00 10° S
Spot 4 Rocket 4.1 06:13:46 10° N 06:18:48 57° WNW 06:23:50 10° SSW
Cosmos 1666 2.6 06:15:26 10° S 06:18:57 77° E 06:22:29 10° NNE
Cosmos 1331 Rocket 4.5 06:15:20 15° NW 06:19:12 39° WSW 06:23:58 10° S
Cosmos 1544 3.0 06:16:54 10° SSW 06:19:59 43° WNW 06:23:06 10° N
Cosmos 1980 3.7 06:17:17 10° SSW 06:22:56 83° WNW 06:28:40 10° NNE
Cosmos 1842 Rocket 3.6 06:18:42 10° NNW 06:23:04 59° W 06:27:26 10° S
COSMOS 2428 3.2 06:20:23 10° WSW 06:25:41 39° NW 06:31:03 10° NNE
Cosmos 2333 Rocket 3.6 06:25:20 16° WNW 06:27:13 18° NW 06:31:06 10° N
ARGOS 3.4 06:23:34 10° N 06:28:42 46° WNW 06:33:48 10° SW
Cosmos 1461 4.2 06:26:26 10° SSW 06:30:43 46° ESE 06:34:56 10° NE
ERS-2 1.9 06:29:03 10° N 06:31:50 40° WNW 06:34:36 10° SW
ATLAS 5 CENTAUR R/B 3.0 06:29:24 10° S 06:32:26 32° ESE 06:35:45 10° NE
NOSS 3-2 (A) 4.2 06:25:28 10° NW 06:32:53 82° NE 06:41:36 10° SE
CENTAUR R/B 3.3 06:25:06 10° NW 06:33:23 85° SW 06:42:36 10° SE
NOSS 0 Rocket 4.0 06:28:05 10° SW 06:34:13 59° WNW 06:40:25 10° NNE
Cosmos 2266 Rocket 4.0 06:28:13 10° N 06:34:18 90° E 06:40:27 10° S
SeaSat 1 2.9 06:30:07 10° SE 06:34:56 60° ENE 06:39:48 10° NNW
SMAP 3.2 06:31:31 10° NNE 06:36:12 82° ESE 06:40:51 10° SSW
CZ-2D R/B 3.5 06:34:42 10° N 06:38:09 40° WNW 06:41:36 10° SW
DELTA 2 DEB (DPAF) 4.3 06:35:21 10° S 06:39:29 47° W 06:43:39 10° NNW
Cosmos 2278 Rocket 2.8 06:34:31 10° NW 06:39:42 38° WSW 06:44:52 10° S
Cosmos 1602 3.5 06:38:41 10° SSW 06:42:20 68° W 06:46:00 10° N
Cosmos 2237 Rocket 2.2 06:42:26 10° SW 06:48:01 59° WNW 06:53:37 10° NNE
USA 267 3.3 06:41:58 10° SE 06:48:31 88° SSW 06:55:08 10° NW
Cosmos 1500 3.7 06:46:22 10° SW 06:49:33 31° WNW 06:52:46 10° N
Cosmos 1076 Rocket 4.1 06:45:47 10° SW 06:49:46 36° WNW 06:53:48 10° N
CZ-2C R/B 3.0 06:46:18 10° N 06:49:53 44° WNW 06:53:31 10° SW
Lacrosse 5 rocket 2.3 06:51:01 10° W 06:54:55 32° NNW 06:58:54 10° NE
Cosmos 2221 4.2 06:55:27 10° NW 06:57:32 13° W 06:59:36 10° WSW
Meteor 1-10 Rocket 4.4 06:52:19 10° NNW 06:58:02 56° W 07:03:37 10° S
SAR-Lupe-2 4.4 06:56:26 10° N 06:59:36 30° WNW 07:02:45 10° SW
Cosmos 2297 4.1 06:56:53 10° NNW 07:02:32 65° ENE 07:08:06 10° SE
SL-08 ROCKET BODY 4.5 06:57:08 10° NNW 07:03:15 74° W 07:09:23 10° S
H-2A R/B 3.7 07:02:32 10° NW 07:03:59 11° NW 07:05:28 10° WNW
Meteor 1-27 Rocket 3.7 07:00:52 10° NNW 07:06:24 73° W 07:11:53 10° S
